Location: Unspecified
(0.0000°N, 0.0000°E)
Time: 19:22:47
(UTC+02:00)

Altair - All Passes

Search period start: 23 October 2017 00:00
Search period end: 01 November 2017 23:00
Orbit: 1501 x 1683 km, 47.2° (Epoch: 23 October)

Date Brightness Start Highest point End Pass type
(mag) Time Alt. Az. Time Alt. Az. Time Alt. Az.
23 Oct - 01:37:56 10° NE 01:38:26 10° NE 01:38:56 10° NE night (unlit)
23 Oct - 03:34:04 10° NNW 03:44:01 60° NE 03:53:45 10° SE visible
23 Oct - 05:40:17 10° WNW 05:48:42 30° SW 05:56:59 10° S visible
23 Oct - 14:21:48 10° S 14:28:38 23° SE 14:35:28 10° E daylight
23 Oct - 16:24:03 10° SW 16:33:12 70° NW 16:42:34 10° NNE daylight
23 Oct - 18:35:20 10° WNW 18:38:23 12° NW 18:41:28 10° NNW daylight
24 Oct - 03:09:00 10° NNW 03:18:50 54° NE 03:28:26 10° SE visible
24 Oct - 05:14:42 10° WNW 05:23:30 34° SW 05:32:08 10° SSE visible
24 Oct - 13:57:09 10° S 14:03:26 20° SE 14:09:42 10° E daylight
24 Oct - 15:58:53 10° SW 16:08:03 78° NW 16:17:27 10° NE daylight
24 Oct - 18:08:48 10° WNW 18:13:06 14° NW 18:17:28 10° NNW daylight
25 Oct - 02:43:59 10° NNW 02:53:37 48° NE 03:03:05 10° ESE visible
25 Oct - 04:49:10 10° WNW 04:58:17 39° SW 05:07:15 10° SSE visible
25 Oct - 13:32:37 10° S 13:38:13 17° SE 13:43:49 10° E daylight
25 Oct - 15:33:44 10° SW 15:42:55 87° NW 15:52:19 10° NE daylight
25 Oct - 17:42:39 10° W 17:47:50 16° NW 17:53:08 10° N daylight
26 Oct - 02:18:59 10° NNW 02:28:25 43° NE 02:37:42 10° ESE visible
26 Oct - 04:23:42 10° WNW 04:33:06 43° SW 04:42:20 10° SSE visible
26 Oct - 13:08:13 10° SSE 13:12:59 15° SE 13:17:45 10° ESE daylight
26 Oct - 15:08:36 10° SW 15:17:48 85° SE 15:27:09 10° NE daylight
26 Oct - 17:16:42 10° W 17:22:35 18° NW 17:28:36 10° N daylight
27 Oct - 01:54:01 10° NNW 02:03:12 38° NE 02:12:16 10° ESE night (unlit)
27 Oct - 03:58:16 10° WNW 04:07:54 49° SW 04:17:22 10° SSE visible
27 Oct - 12:44:03 10° SSE 12:47:44 13° SE 12:51:24 10° ESE daylight
27 Oct - 14:43:30 10° SW 14:52:40 76° SE 15:01:57 10° NE daylight
27 Oct - 16:50:53 10° W 16:57:22 21° NW 17:03:59 10° N daylight
28 Oct - 01:29:06 10° NNW 01:37:58 34° NE 01:46:45 10° ESE night (unlit)
28 Oct - 03:32:53 10° NW 03:42:42 55° SW 03:52:22 10° SSE visible
28 Oct - 12:20:33 10° SSE 12:22:28 11° SE 12:24:23 10° ESE daylight
28 Oct - 14:18:27 10° SSW 14:27:32 68° SE 14:36:44 10° NE daylight
28 Oct - 16:25:11 10° W 16:32:09 24° NW 16:39:15 10° N daylight
29 Oct - 01:04:14 10° N 01:12:44 30° NE 01:21:11 10° ESE night (unlit)
29 Oct - 02:07:33 10° NW 02:17:30 61° SW 02:27:20 10° SSE visible
29 Oct - 04:22:25 10° SW 04:22:56 10° SW 04:23:26 10° SW visible
29 Oct - 12:53:24 10° SSW 13:02:24 60° SE 13:11:29 10° NE daylight
29 Oct - 14:59:35 10° WSW 15:06:58 27° NW 15:14:29 10° N daylight
29 Oct - 23:39:24 10° N 23:47:30 27° NE 23:55:33 10° ESE night (unlit)
30 Oct - 01:42:15 10° NW 01:52:19 68° SW 02:02:17 10° SSE visible
30 Oct - 03:54:08 10° WSW 03:57:36 12° SW 04:01:04 10° SSW visible
30 Oct - 12:28:24 10° SSW 12:37:17 54° SE 12:46:11 10° NE daylight
30 Oct - 14:34:02 10° WSW 14:41:46 31° NW 14:49:40 10° N daylight
30 Oct - 23:14:38 10° N 23:22:15 24° NE 23:29:51 10° E night (unlit)
31 Oct - 01:16:59 10° NW 01:27:08 75° SW 01:37:11 10° SE visible
31 Oct - 03:27:29 10° WSW 03:32:18 14° SW 03:37:05 10° SSW visible
31 Oct - 12:03:25 10° SSW 12:12:09 48° SE 12:20:52 10° ENE daylight
31 Oct - 14:08:33 10° WSW 14:16:35 35° NW 14:24:48 10° NNE daylight
31 Oct - 22:49:56 10° N 22:56:59 21° NE 23:04:02 10° E night (unlit)
01 Nov - 00:51:45 10° NW 01:01:57 83° SW 01:12:03 10° SE visible
01 Nov - 03:01:13 10° W 03:07:00 17° SW 03:12:47 10° S visible
01 Nov - 11:38:29 10° SSW 11:47:00 42° SE 11:55:29 10° ENE daylight
01 Nov - 13:43:07 10° WSW 13:51:26 39° NW 13:59:53 10° NNE daylight
01 Nov - 22:25:20 10° N 22:31:43 18° NE 22:38:06 10° E night (unlit)
